owner,sensor,date,latitude,longitude,vertical_datum,wind_speed,wind_to_direction,wind_speed_of_gust,qcFlag 
WAVCIS,ioos:station:WAVCIS:CSI15:1,2012-05-01T00:00:00Z,28.8332,-90.8320,10.0,5.94,77.0,,'11111222,11111222,99999999' 
WAVCIS,ioos:station:WAVCIS:CSI15:1,2012-05-01T01:00:00Z,28.8332,-90.8320,10.0,6.946,83.0,,'11111222,11111222,99999999' 
WAVCIS,ioos:station:WAVCIS:CSI15:1,2012-05-01T02:00:00Z,28.8332,-90.8320,10.0,7.15,84.0,,'11111222,11111222,99999999' 
WAVCIS,ioos:station:WAVCIS:CSI15:1,2012-05-01T03:00:00Z,28.8332,-90.8320,10.0,7.46,86.0,,'11111222,11111222,99999999' 
WAVCIS,ioos:station:WAVCIS:CSI15:1,2012-05-01T04:00:00Z,28.8332,-90.8320,10.0,7.33,86.0,,'11111222,11111222,99999999' 
WAVCIS,ioos:station:WAVCIS:CSI15:1,2012-05-01T05:00:00Z,28.8332,-90.8320,10.0,7.33,85.0,,'11111222,11111222,99999999' 
WAVCIS,ioos:station:WAVCIS:CSI15:1,2012-05-01T06:00:00Z,28.8332,-90.8320,10.0,7.65,89.0,,'11111222,11111222,99999999' 
WAVCIS,ioos:station:WAVCIS:CSI15:1,2012-05-01T07:00:00Z,28.8332,-90.8320,10.0,5.848,92.0,,'11111222,11111222,99999999' 
WAVCIS,ioos:station:WAVCIS:CSI15:1,2012-05-01T08:00:00Z,28.8332,-90.8320,10.0,5.511,89.0,,'11111222,11111222,99999999' 
WAVCIS,ioos:station:WAVCIS:CSI15:1,2012-05-01T09:00:00Z,28.8332,-90.8320,10.0,8.07,95.0,,'11111222,11111222,99999999' 
WAVCIS,ioos:station:WAVCIS:CSI15:1,2012-05-01T10:00:00Z,28.8332,-90.8320,10.0,5.876,90.0,,'11111222,11111222,99999999' 
WAVCIS,ioos:station:WAVCIS:CSI15:1,2012-05-01T11:00:00Z,28.8332,-90.8320,10.0,2.672,76.0,,'11111222,11111222,99999999' 
WAVCIS,ioos:station:WAVCIS:CSI15:1,2012-05-01T12:00:00Z,28.8332,-90.8320,10.0,2.999,49.0,,'11111222,11111222,99999999' 
WAVCIS,ioos:station:WAVCIS:CSI15:1,2012-05-01T13:00:00Z,28.8332,-90.8320,10.0,3.624,13.0,,'11111222,11111222,99999999' 
WAVCIS,ioos:station:WAVCIS:CSI15:1,2012-05-01T14:00:00Z,28.8332,-90.8320,10.0,5.678,49.0,,'11111222,11111222,99999999' 
WAVCIS,ioos:station:WAVCIS:CSI15:1,2012-05-01T15:00:00Z,28.8332,-90.8320,10.0,5.382,60.0,,'11111222,11111222,99999999' 
WAVCIS,ioos:station:WAVCIS:CSI15:1,2012-05-01T16:00:00Z,28.8332,-90.8320,10.0,7.01,59.0,,'11111222,11111222,99999999' 
WAVCIS,ioos:station:WAVCIS:CSI15:1,2012-05-01T17:00:00Z,28.8332,-90.8320,10.0,7.73,62.0,,'11111222,11111222,99999999' 
WAVCIS,ioos:station:WAVCIS:CSI15:1,2012-05-01T18:00:00Z,28.8332,-90.8320,10.0,8.82,60.0,,'11111222,11111222,99999999' 
WAVCIS,ioos:station:WAVCIS:CSI15:1,2012-05-01T19:00:00Z,28.8332,-90.8320,10.0,9.42,62.0,,'11111222,11111222,99999999' 
WAVCIS,ioos:station:WAVCIS:CSI15:1,2012-05-01T20:00:00Z,28.8332,-90.8320,10.0,9.92,59.0,,'11111222,11111222,99999999' 
WAVCIS,ioos:station:WAVCIS:CSI15:1,2012-05-01T21:00:00Z,28.8332,-90.8320,10.0,9.18,65.0,,'11111222,11111222,99999999' 
WAVCIS,ioos:station:WAVCIS:CSI15:1,2012-05-01T22:00:00Z,28.8332,-90.8320,10.0,8.54,68.0,,'11111222,11111222,99999999' 
WAVCIS,ioos:station:WAVCIS:CSI15:1,2012-05-01T23:00:00Z,28.8332,-90.8320,10.0,9.45,73.0,,'11111222,11111222,99999999' 
WAVCIS,ioos:station:WAVCIS:CSI15:1,2012-05-02T00:00:00Z,28.8332,-90.8320,10.0,8.87,70.0,,'11111222,11111222,99999999' 
WAVCIS,ioos:station:WAVCIS:CSI15:1,2012-05-02T01:00:00Z,28.8332,-90.8320,10.0,9.99,66.0,,'11111222,11111222,99999999' 
WAVCIS,ioos:station:WAVCIS:CSI15:1,2012-05-02T02:00:00Z,28.8332,-90.8320,10.0,10.49,72.0,,'11111222,11111222,99999999' 
WAVCIS,ioos:station:WAVCIS:CSI15:1,2012-05-02T03:00:00Z,28.8332,-90.8320,10.0,8.93,75.0,,'11111222,11111222,99999999' 
WAVCIS,ioos:station:WAVCIS:CSI15:1,2012-05-02T04:00:00Z,28.8332,-90.8320,10.0,8.98,77.0,,'11111222,11111222,99999999' 
WAVCIS,ioos:station:WAVCIS:CSI15:1,2012-05-02T05:00:00Z,28.8332,-90.8320,10.0,9.42,76.0,,'11111222,11111222,99999999' 
WAVCIS,ioos:station:WAVCIS:CSI15:1,2012-05-02T06:00:00Z,28.8332,-90.8320,10.0,9.56,79.0,,'11111222,11111222,99999999' 
WAVCIS,ioos:station:WAVCIS:CSI15:1,2012-05-02T07:00:00Z,28.8332,-90.8320,10.0,8.7,79.0,,'11111222,11111222,99999999' 
WAVCIS,ioos:station:WAVCIS:CSI15:1,2012-05-02T08:00:00Z,28.8332,-90.8320,10.0,7.66,81.0,,'11111222,11111222,99999999' 
WAVCIS,ioos:station:WAVCIS:CSI15:1,2012-05-02T09:00:00Z,28.8332,-90.8320,10.0,8.04,90.0,,'11111222,11111222,99999999' 
WAVCIS,ioos:station:WAVCIS:CSI15:1,2012-05-02T10:00:00Z,28.8332,-90.8320,10.0,8.74,82.0,,'11111222,11111222,99999999' 
WAVCIS,ioos:station:WAVCIS:CSI15:1,2012-05-02T11:00:00Z,28.8332,-90.8320,10.0,8.15,90.0,,'11111222,11111222,99999999' 
WAVCIS,ioos:station:WAVCIS:CSI15:1,2012-05-02T12:00:00Z,28.8332,-90.8320,10.0,8.21,100.0,,'11111222,11111222,99999999' 
WAVCIS,ioos:station:WAVCIS:CSI15:1,2012-05-02T13:00:00Z,28.8332,-90.8320,10.0,7.28,107.0,,'11111222,11111222,99999999' 
WAVCIS,ioos:station:WAVCIS:CSI15:1,2012-05-02T14:00:00Z,28.8332,-90.8320,10.0,7.21,121.0,,'11111222,11111222,99999999' 
WAVCIS,ioos:station:WAVCIS:CSI15:1,2012-05-02T15:00:00Z,28.8332,-90.8320,10.0,8.55,127.0,,'11111222,11111222,99999999' 
WAVCIS,ioos:station:WAVCIS:CSI15:1,2012-05-02T16:00:00Z,28.8332,-90.8320,10.0,7.25,122.0,,'11111222,11111222,99999999' 
WAVCIS,ioos:station:WAVCIS:CSI15:1,2012-05-02T17:00:00Z,28.8332,-90.8320,10.0,7.33,145.0,,'11111222,11111222,99999999' 
WAVCIS,ioos:station:WAVCIS:CSI15:1,2012-05-02T18:00:00Z,28.8332,-90.8320,10.0,7.38,145.0,,'11111222,11111222,99999999' 
WAVCIS,ioos:station:WAVCIS:CSI15:1,2012-05-02T19:00:00Z,28.8332,-90.8320,10.0,8.13,148.0,,'11111222,11111222,99999999' 
WAVCIS,ioos:station:WAVCIS:CSI15:1,2012-05-02T20:00:00Z,28.8332,-90.8320,10.0,7.59,149.0,,'11111222,11111222,99999999' 
WAVCIS,ioos:station:WAVCIS:CSI15:1,2012-05-02T21:00:00Z,28.8332,-90.8320,10.0,7.87,153.0,,'11111222,11111222,99999999' 
WAVCIS,ioos:station:WAVCIS:CSI15:1,2012-05-02T22:00:00Z,28.8332,-90.8320,10.0,7.43,151.0,,'11111222,11111222,99999999' 
WAVCIS,ioos:station:WAVCIS:CSI15:1,2012-05-02T23:00:00Z,28.8332,-90.8320,10.0,5.992,177.0,,'11111222,11111222,99999999' 
WAVCIS,ioos:station:WAVCIS:CSI15:1,2012-05-03T00:00:00Z,28.8332,-90.8320,10.0,4.296,159.0,,'11111222,11111222,99999999' 
WAVCIS,ioos:station:WAVCIS:CSI15:1,2012-05-03T01:00:00Z,28.8332,-90.8320,10.0,3.431,140.0,,'11111222,11111222,99999999' 
WAVCIS,ioos:station:WAVCIS:CSI15:1,2012-05-03T02:00:00Z,28.8332,-90.8320,10.0,1.522,119.0,,'11111222,11111222,99999999' 
WAVCIS,ioos:station:WAVCIS:CSI15:1,2012-05-03T03:00:00Z,28.8332,-90.8320,10.0,4.041,91.0,,'11111222,11111222,99999999' 
WAVCIS,ioos:station:WAVCIS:CSI15:1,2012-05-03T04:00:00Z,28.8332,-90.8320,10.0,6.212,122.0,,'11111222,11111222,99999999' 
WAVCIS,ioos:station:WAVCIS:CSI15:1,2012-05-03T05:00:00Z,28.8332,-90.8320,10.0,4.26,123.0,,'11111222,11111222,99999999' 
WAVCIS,ioos:station:WAVCIS:CSI15:1,2012-05-03T06:00:00Z,28.8332,-90.8320,10.0,5.053,116.0,,'11111222,11111222,99999999' 
WAVCIS,ioos:station:WAVCIS:CSI15:1,2012-05-03T07:00:00Z,28.8332,-90.8320,10.0,4.32,114.0,,'11111222,11111222,99999999' 
WAVCIS,ioos:station:WAVCIS:CSI15:1,2012-05-03T08:00:00Z,28.8332,-90.8320,10.0,5.073,112.0,,'11111222,11111222,99999999' 
WAVCIS,ioos:station:WAVCIS:CSI15:1,2012-05-03T09:00:00Z,28.8332,-90.8320,10.0,5.472,114.0,,'11111222,11111222,99999999' 
WAVCIS,ioos:station:WAVCIS:CSI15:1,2012-05-03T10:00:00Z,28.8332,-90.8320,10.0,5.344,118.0,,'11111222,11111222,99999999' 
WAVCIS,ioos:station:WAVCIS:CSI15:1,2012-05-03T11:00:00Z,28.8332,-90.8320,10.0,4.779,141.0,,'11111222,11111222,99999999' 
WAVCIS,ioos:station:WAVCIS:CSI15:1,2012-05-03T12:00:00Z,28.8332,-90.8320,10.0,3.545,146.0,,'11111222,11111222,99999999' 
WAVCIS,ioos:station:WAVCIS:CSI15:1,2012-05-03T13:00:00Z,28.8332,-90.8320,10.0,4.011,147.0,,'11111222,11111222,99999999' 
WAVCIS,ioos:station:WAVCIS:CSI15:1,2012-05-03T14:00:00Z,28.8332,-90.8320,10.0,2.433,138.0,,'11111222,11111222,99999999' 
WAVCIS,ioos:station:WAVCIS:CSI15:1,2012-05-03T15:00:00Z,28.8332,-90.8320,10.0,1.141,143.0,,'11111222,11111222,99999999' 
WAVCIS,ioos:station:WAVCIS:CSI15:1,2012-05-03T16:00:00Z,28.8332,-90.8320,10.0,1.022,83.0,,'11111222,11111222,99999999' 
WAVCIS,ioos:station:WAVCIS:CSI15:1,2012-05-03T17:00:00Z,28.8332,-90.8320,10.0,1.835,85.0,,'11111222,11111222,99999999' 
WAVCIS,ioos:station:WAVCIS:CSI15:1,2012-05-03T18:00:00Z,28.8332,-90.8320,10.0,1.295,85.0,,'11111222,11111222,99999999' 
WAVCIS,ioos:station:WAVCIS:CSI15:1,2012-05-03T19:00:00Z,28.8332,-90.8320,10.0,1.03,102.0,,'11111222,11111222,99999999' 
WAVCIS,ioos:station:WAVCIS:CSI15:1,2012-05-03T20:00:00Z,28.8332,-90.8320,10.0,1.587,138.0,,'11111222,11111222,99999999' 
WAVCIS,ioos:station:WAVCIS:CSI15:1,2012-05-03T21:00:00Z,28.8332,-90.8320,10.0,2.151,158.0,,'11111222,11111222,99999999' 
WAVCIS,ioos:station:WAVCIS:CSI15:1,2012-05-03T22:00:00Z,28.8332,-90.8320,10.0,1.39,160.0,,'11111222,11111222,99999999' 
WAVCIS,ioos:station:WAVCIS:CSI15:1,2012-05-03T23:00:00Z,28.8332,-90.8320,10.0,2.148,140.0,,'11111222,11111222,99999999' 
WAVCIS,ioos:station:WAVCIS:CSI15:1,2012-05-04T00:00:00Z,28.8332,-90.8320,10.0,2.097,128.0,,'11111222,11111222,99999999' 
WAVCIS,ioos:station:WAVCIS:CSI15:1,2012-05-04T01:00:00Z,28.8332,-90.8320,10.0,3.215,125.0,,'11111222,11111222,99999999' 
WAVCIS,ioos:station:WAVCIS:CSI15:1,2012-05-04T02:00:00Z,28.8332,-90.8320,10.0,3.934,121.0,,'11111222,11111222,99999999' 
WAVCIS,ioos:station:WAVCIS:CSI15:1,2012-05-04T03:00:00Z,28.8332,-90.8320,10.0,4.18,114.0,,'11111222,11111222,99999999' 
WAVCIS,ioos:station:WAVCIS:CSI15:1,2012-05-04T04:00:00Z,28.8332,-90.8320,10.0,3.444,113.0,,'11111222,11111222,99999999' 
WAVCIS,ioos:station:WAVCIS:CSI15:1,2012-05-04T05:00:00Z,28.8332,-90.8320,10.0,3.549,110.0,,'11111222,11111222,99999999' 
WAVCIS,ioos:station:WAVCIS:CSI15:1,2012-05-04T06:00:00Z,28.8332,-90.8320,10.0,3.894,100.0,,'11111222,11111222,99999999' 
WAVCIS,ioos:station:WAVCIS:CSI15:1,2012-05-04T07:00:00Z,28.8332,-90.8320,10.0,2.967,102.0,,'11111222,11111222,99999999' 
WAVCIS,ioos:station:WAVCIS:CSI15:1,2012-05-04T08:00:00Z,28.8332,-90.8320,10.0,3.328,140.0,,'11111222,11111222,99999999' 
WAVCIS,ioos:station:WAVCIS:CSI15:1,2012-05-04T09:00:00Z,28.8332,-90.8320,10.0,2.949,145.0,,'11111222,11111222,99999999' 
WAVCIS,ioos:station:WAVCIS:CSI15:1,2012-05-04T10:00:00Z,28.8332,-90.8320,10.0,3.13,137.0,,'11111222,11111222,99999999' 
WAVCIS,ioos:station:WAVCIS:CSI15:1,2012-05-04T11:00:00Z,28.8332,-90.8320,10.0,2.457,158.0,,'11111222,11111222,99999999' 
WAVCIS,ioos:station:WAVCIS:CSI15:1,2012-05-04T12:00:00Z,28.8332,-90.8320,10.0,2.057,163.0,,'11111222,11111222,99999999' 
WAVCIS,ioos:station:WAVCIS:CSI15:1,2012-05-04T13:00:00Z,28.8332,-90.8320,10.0,2.413,143.0,,'11111222,11111222,99999999' 
WAVCIS,ioos:station:WAVCIS:CSI15:1,2012-05-04T14:00:00Z,28.8332,-90.8320,10.0,2.307,111.0,,'11111222,11111222,99999999' 
WAVCIS,ioos:station:WAVCIS:CSI15:1,2012-05-04T15:00:00Z,28.8332,-90.8320,10.0,2.473,124.0,,'11111222,11111222,99999999' 
WAVCIS,ioos:station:WAVCIS:CSI15:1,2012-05-04T16:00:00Z,28.8332,-90.8320,10.0,2.604,124.0,,'11111222,11111222,99999999' 
WAVCIS,ioos:station:WAVCIS:CSI15:1,2012-05-04T17:00:00Z,28.8332,-90.8320,10.0,2.753,137.0,,'11111222,11111222,99999999' 
WAVCIS,ioos:station:WAVCIS:CSI15:1,2012-05-04T18:00:00Z,28.8332,-90.8320,10.0,1.755,109.0,,'11111222,11111222,99999999' 
WAVCIS,ioos:station:WAVCIS:CSI15:1,2012-05-04T19:00:00Z,28.8332,-90.8320,10.0,1.998,98.0,,'11111222,11111222,99999999' 
WAVCIS,ioos:station:WAVCIS:CSI15:1,2012-05-04T20:00:00Z,28.8332,-90.8320,10.0,3.05,138.0,,'11111222,11111222,99999999' 
WAVCIS,ioos:station:WAVCIS:CSI15:1,2012-05-04T21:00:00Z,28.8332,-90.8320,10.0,2.97,138.0,,'11111222,11111222,99999999' 
WAVCIS,ioos:station:WAVCIS:CSI15:1,2012-05-04T22:00:00Z,28.8332,-90.8320,10.0,3.413,125.0,,'11111222,11111222,99999999' 
WAVCIS,ioos:station:WAVCIS:CSI15:1,2012-05-04T23:00:00Z,28.8332,-90.8320,10.0,3.029,129.0,,'11111222,11111222,99999999' 
WAVCIS,ioos:station:WAVCIS:CSI15:1,2012-05-05T00:00:00Z,28.8332,-90.8320,10.0,2.834,111.0,,'11111222,11111222,99999999' 
WAVCIS,ioos:station:WAVCIS:CSI15:1,2012-05-05T01:00:00Z,28.8332,-90.8320,10.0,2.706,142.0,,'11111222,11111222,99999999' 
WAVCIS,ioos:station:WAVCIS:CSI15:1,2012-05-05T02:00:00Z,28.8332,-90.8320,10.0,3.907,126.0,,'11111222,11111222,99999999' 
WAVCIS,ioos:station:WAVCIS:CSI15:1,2012-05-05T03:00:00Z,28.8332,-90.8320,10.0,4.37,136.0,,'11111222,11111222,99999999' 
WAVCIS,ioos:station:WAVCIS:CSI15:1,2012-05-05T04:00:00Z,28.8332,-90.8320,10.0,4.203,129.0,,'11111222,11111222,99999999' 
WAVCIS,ioos:station:WAVCIS:CSI15:1,2012-05-05T05:00:00Z,28.8332,-90.8320,10.0,4.235,134.0,,'11111222,11111222,99999999' 
WAVCIS,ioos:station:WAVCIS:CSI15:1,2012-05-05T06:00:00Z,28.8332,-90.8320,10.0,3.106,160.0,,'11111222,11111222,99999999' 
WAVCIS,ioos:station:WAVCIS:CSI15:1,2012-05-05T07:00:00Z,28.8332,-90.8320,10.0,2.58,151.0,,'11111222,11111222,99999999' 
WAVCIS,ioos:station:WAVCIS:CSI15:1,2012-05-05T08:00:00Z,28.8332,-90.8320,10.0,3.044,150.0,,'11111222,11111222,99999999' 
WAVCIS,ioos:station:WAVCIS:CSI15:1,2012-05-05T09:00:00Z,28.8332,-90.8320,10.0,3.696,154.0,,'11111222,11111222,99999999' 
WAVCIS,ioos:station:WAVCIS:CSI15:1,2012-05-05T10:00:00Z,28.8332,-90.8320,10.0,3.221,180.0,,'11111222,11111222,99999999' 
WAVCIS,ioos:station:WAVCIS:CSI15:1,2012-05-05T11:00:00Z,28.8332,-90.8320,10.0,2.029,205.0,,'11111222,11111222,99999999' 
WAVCIS,ioos:station:WAVCIS:CSI15:1,2012-05-05T12:00:00Z,28.8332,-90.8320,10.0,2.081,170.0,,'11111222,11111222,99999999' 
WAVCIS,ioos:station:WAVCIS:CSI15:1,2012-05-05T13:00:00Z,28.8332,-90.8320,10.0,2.28,171.0,,'11111222,11111222,99999999' 
WAVCIS,ioos:station:WAVCIS:CSI15:1,2012-05-05T14:00:00Z,28.8332,-90.8320,10.0,2.791,129.0,,'11111222,11111222,99999999' 
WAVCIS,ioos:station:WAVCIS:CSI15:1,2012-05-05T15:00:00Z,28.8332,-90.8320,10.0,2.004,230.0,,'11111222,11111222,99999999' 
WAVCIS,ioos:station:WAVCIS:CSI15:1,2012-05-05T16:00:00Z,28.8332,-90.8320,10.0,2.082,256.0,,'11111222,11111222,99999999' 
WAVCIS,ioos:station:WAVCIS:CSI15:1,2012-05-05T17:00:00Z,28.8332,-90.8320,10.0,0.841,140.0,,'11111222,11111222,99999999' 
WAVCIS,ioos:station:WAVCIS:CSI15:1,2012-05-05T18:00:00Z,28.8332,-90.8320,10.0,2.059,113.0,,'11111222,11111222,99999999' 
WAVCIS,ioos:station:WAVCIS:CSI15:1,2012-05-05T19:00:00Z,28.8332,-90.8320,10.0,1.264,114.0,,'11111222,11111222,99999999' 
WAVCIS,ioos:station:WAVCIS:CSI15:1,2012-05-05T20:00:00Z,28.8332,-90.8320,10.0,1.524,120.0,,'11111222,11111222,99999999' 
WAVCIS,ioos:station:WAVCIS:CSI15:1,2012-05-05T21:00:00Z,28.8332,-90.8320,10.0,2.898,155.0,,'11111222,11111222,99999999' 
WAVCIS,ioos:station:WAVCIS:CSI15:1,2012-05-05T22:00:00Z,28.8332,-90.8320,10.0,2.547,152.0,,'11111222,11111222,99999999' 
WAVCIS,ioos:station:WAVCIS:CSI15:1,2012-05-05T23:00:00Z,28.8332,-90.8320,10.0,3.578,133.0,,'11111222,11111222,99999999' 
WAVCIS,ioos:station:WAVCIS:CSI15:1,2012-05-06T00:00:00Z,28.8332,-90.8320,10.0,3.479,141.0,,'11111222,11111222,99999999' 
WAVCIS,ioos:station:WAVCIS:CSI15:1,2012-05-06T01:00:00Z,28.8332,-90.8320,10.0,2.611,127.0,,'11111222,11111222,99999999' 
WAVCIS,ioos:station:WAVCIS:CSI15:1,2012-05-06T02:00:00Z,28.8332,-90.8320,10.0,2.946,113.0,,'11111222,11111222,99999999' 
WAVCIS,ioos:station:WAVCIS:CSI15:1,2012-05-06T03:00:00Z,28.8332,-90.8320,10.0,3.579,133.0,,'11111222,11111222,99999999' 
WAVCIS,ioos:station:WAVCIS:CSI15:1,2012-05-06T04:00:00Z,28.8332,-90.8320,10.0,3.401,147.0,,'11111222,11111222,99999999' 
WAVCIS,ioos:station:WAVCIS:CSI15:1,2012-05-06T05:00:00Z,28.8332,-90.8320,10.0,4.062,154.0,,'11111222,11111222,99999999' 
WAVCIS,ioos:station:WAVCIS:CSI15:1,2012-05-06T06:00:00Z,28.8332,-90.8320,10.0,4.48,157.0,,'11111222,11111222,99999999' 
WAVCIS,ioos:station:WAVCIS:CSI15:1,2012-05-06T07:00:00Z,28.8332,-90.8320,10.0,5.012,188.0,,'11111222,11111222,99999999' 
WAVCIS,ioos:station:WAVCIS:CSI15:1,2012-05-06T08:00:00Z,28.8332,-90.8320,10.0,3.557,176.0,,'11111222,11111222,99999999' 
WAVCIS,ioos:station:WAVCIS:CSI15:1,2012-05-06T09:00:00Z,28.8332,-90.8320,10.0,2.869,174.0,,'11111222,11111222,99999999' 
WAVCIS,ioos:station:WAVCIS:CSI15:1,2012-05-06T10:00:00Z,28.8332,-90.8320,10.0,2.921,169.0,,'11111222,11111222,99999999' 
WAVCIS,ioos:station:WAVCIS:CSI15:1,2012-05-06T11:00:00Z,28.8332,-90.8320,10.0,3.942,200.0,,'11111222,11111222,99999999' 
WAVCIS,ioos:station:WAVCIS:CSI15:1,2012-05-06T12:00:00Z,28.8332,-90.8320,10.0,2.198,230.0,,'11111222,11111222,99999999' 
WAVCIS,ioos:station:WAVCIS:CSI15:1,2012-05-06T13:00:00Z,28.8332,-90.8320,10.0,2.212,266.0,,'11111222,11111222,99999999' 
WAVCIS,ioos:station:WAVCIS:CSI15:1,2012-05-06T14:00:00Z,28.8332,-90.8320,10.0,1.643,293.0,,'11111222,11111222,99999999' 
WAVCIS,ioos:station:WAVCIS:CSI15:1,2012-05-06T15:00:00Z,28.8332,-90.8320,10.0,0.826,229.0,,'11111222,11111222,99999999' 
WAVCIS,ioos:station:WAVCIS:CSI15:1,2012-05-06T16:00:00Z,28.8332,-90.8320,10.0,1.735,288.0,,'11111222,11111222,99999999' 
WAVCIS,ioos:station:WAVCIS:CSI15:1,2012-05-06T17:00:00Z,28.8332,-90.8320,10.0,1.698,310.0,,'11111222,11111222,99999999' 
WAVCIS,ioos:station:WAVCIS:CSI15:1,2012-05-06T18:00:00Z,28.8332,-90.8320,10.0,0.471,61.0,,'11111222,11111222,99999999' 
WAVCIS,ioos:station:WAVCIS:CSI15:1,2012-05-06T19:00:00Z,28.8332,-90.8320,10.0,1.48,126.0,,'11111222,11111222,99999999' 
WAVCIS,ioos:station:WAVCIS:CSI15:1,2012-05-06T20:00:00Z,28.8332,-90.8320,10.0,2.681,124.0,,'11111222,11111222,99999999' 
WAVCIS,ioos:station:WAVCIS:CSI15:1,2012-05-06T21:00:00Z,28.8332,-90.8320,10.0,3.665,132.0,,'11111222,11111222,99999999' 
WAVCIS,ioos:station:WAVCIS:CSI15:1,2012-05-06T22:00:00Z,28.8332,-90.8320,10.0,3.765,145.0,,'11111222,11111222,99999999' 
WAVCIS,ioos:station:WAVCIS:CSI15:1,2012-05-06T23:00:00Z,28.8332,-90.8320,10.0,4.724,168.0,,'11111222,11111222,99999999' 
WAVCIS,ioos:station:WAVCIS:CSI15:1,2012-05-07T00:00:00Z,28.8332,-90.8320,10.0,4.249,175.0,,'11111222,11111222,99999999' 
WAVCIS,ioos:station:WAVCIS:CSI15:1,2012-05-07T01:00:00Z,28.8332,-90.8320,10.0,3.869,155.0,,'11111222,11111222,99999999' 
WAVCIS,ioos:station:WAVCIS:CSI15:1,2012-05-07T02:00:00Z,28.8332,-90.8320,10.0,4.064,163.0,,'11111222,11111222,99999999' 
WAVCIS,ioos:station:WAVCIS:CSI15:1,2012-05-07T03:00:00Z,28.8332,-90.8320,10.0,3.281,165.0,,'11111222,11111222,99999999' 
WAVCIS,ioos:station:WAVCIS:CSI15:1,2012-05-07T04:00:00Z,28.8332,-90.8320,10.0,1.62,173.0,,'11111222,11111222,99999999' 
WAVCIS,ioos:station:WAVCIS:CSI15:1,2012-05-07T05:00:00Z,28.8332,-90.8320,10.0,1.45,180.0,,'11111222,11111222,99999999' 
WAVCIS,ioos:station:WAVCIS:CSI15:1,2012-05-07T06:00:00Z,28.8332,-90.8320,10.0,2.175,198.0,,'11111222,11111222,99999999' 
WAVCIS,ioos:station:WAVCIS:CSI15:1,2012-05-07T07:00:00Z,28.8332,-90.8320,10.0,3.869,213.0,,'11111222,11111222,99999999' 
WAVCIS,ioos:station:WAVCIS:CSI15:1,2012-05-07T08:00:00Z,28.8332,-90.8320,10.0,5.509,214.0,,'11111222,11111222,99999999' 
WAVCIS,ioos:station:WAVCIS:CSI15:1,2012-05-07T09:00:00Z,28.8332,-90.8320,10.0,4.651,234.0,,'11111222,11111222,99999999' 
WAVCIS,ioos:station:WAVCIS:CSI15:1,2012-05-07T10:00:00Z,28.8332,-90.8320,10.0,4.889,254.0,,'11111222,11111222,99999999' 
WAVCIS,ioos:station:WAVCIS:CSI15:1,2012-05-07T11:00:00Z,28.8332,-90.8320,10.0,3.323,283.0,,'11111222,11111222,99999999' 
WAVCIS,ioos:station:WAVCIS:CSI15:1,2012-05-07T12:00:00Z,28.8332,-90.8320,10.0,4.074,285.0,,'11111222,11111222,99999999' 
WAVCIS,ioos:station:WAVCIS:CSI15:1,2012-05-07T13:00:00Z,28.8332,-90.8320,10.0,2.229,286.0,,'11111222,11111222,99999999' 
WAVCIS,ioos:station:WAVCIS:CSI15:1,2012-05-07T14:00:00Z,28.8332,-90.8320,10.0,1.986,294.0,,'11111222,11111222,99999999' 
WAVCIS,ioos:station:WAVCIS:CSI15:1,2012-05-07T15:00:00Z,28.8332,-90.8320,10.0,1.296,328.0,,'11111222,11111222,99999999' 
WAVCIS,ioos:station:WAVCIS:CSI15:1,2012-05-07T16:00:00Z,28.8332,-90.8320,10.0,1.062,357.0,,'11111222,11111222,99999999' 
WAVCIS,ioos:station:WAVCIS:CSI15:1,2012-05-07T17:00:00Z,28.8332,-90.8320,10.0,3.66,72.0,,'11111222,11111222,99999999' 
WAVCIS,ioos:station:WAVCIS:CSI15:1,2012-05-07T18:00:00Z,28.8332,-90.8320,10.0,5.43,10.0,,'11111222,11111222,99999999' 
WAVCIS,ioos:station:WAVCIS:CSI15:1,2012-05-07T19:00:00Z,28.8332,-90.8320,10.0,4.109,13.0,,'11111222,11111222,99999999' 
WAVCIS,ioos:station:WAVCIS:CSI15:1,2012-05-07T20:00:00Z,28.8332,-90.8320,10.0,2.905,69.0,,'11111222,11111222,99999999' 
WAVCIS,ioos:station:WAVCIS:CSI15:1,2012-05-07T21:00:00Z,28.8332,-90.8320,10.0,6.169,183.0,,'11111222,11111222,99999999' 
WAVCIS,ioos:station:WAVCIS:CSI15:1,2012-05-07T22:00:00Z,28.8332,-90.8320,10.0,1.369,264.0,,'11111222,11111222,99999999' 
WAVCIS,ioos:station:WAVCIS:CSI15:1,2012-05-07T23:00:00Z,28.8332,-90.8320,10.0,3.434,341.0,,'11111222,11111222,99999999' 
WAVCIS,ioos:station:WAVCIS:CSI15:1,2012-05-08T00:00:00Z,28.8332,-90.8320,10.0,2.112,169.0,,'11111222,11111222,99999999' 
WAVCIS,ioos:station:WAVCIS:CSI15:1,2012-05-08T01:00:00Z,28.8332,-90.8320,10.0,1.012,149.0,,'11111222,11111222,99999999' 
WAVCIS,ioos:station:WAVCIS:CSI15:1,2012-05-08T02:00:00Z,28.8332,-90.8320,10.0,2.192,336.0,,'11111222,11111222,99999999' 
WAVCIS,ioos:station:WAVCIS:CSI15:1,2012-05-08T03:00:00Z,28.8332,-90.8320,10.0,2.745,299.0,,'11111222,11111222,99999999' 
WAVCIS,ioos:station:WAVCIS:CSI15:1,2012-05-08T04:00:00Z,28.8332,-90.8320,10.0,12.25,359.0,,'11111222,11111222,99999999' 
WAVCIS,ioos:station:WAVCIS:CSI15:1,2012-05-08T05:00:00Z,28.8332,-90.8320,10.0,5.695,32.0,,'11111222,11111222,99999999' 
WAVCIS,ioos:station:WAVCIS:CSI15:1,2012-05-08T06:00:00Z,28.8332,-90.8320,10.0,4.257,84.0,,'11111222,11111222,99999999' 
WAVCIS,ioos:station:WAVCIS:CSI15:1,2012-05-08T07:00:00Z,28.8332,-90.8320,10.0,3.412,123.0,,'11111222,11111222,99999999' 
WAVCIS,ioos:station:WAVCIS:CSI15:1,2012-05-08T08:00:00Z,28.8332,-90.8320,10.0,3.544,159.0,,'11111222,11111222,99999999' 
WAVCIS,ioos:station:WAVCIS:CSI15:1,2012-05-08T09:00:00Z,28.8332,-90.8320,10.0,2.396,204.0,,'11111222,11111222,99999999' 
WAVCIS,ioos:station:WAVCIS:CSI15:1,2012-05-08T10:00:00Z,28.8332,-90.8320,10.0,3.897,266.0,,'11111222,11111222,99999999' 
WAVCIS,ioos:station:WAVCIS:CSI15:1,2012-05-08T11:00:00Z,28.8332,-90.8320,10.0,4.356,318.0,,'11111222,11111222,99999999' 
WAVCIS,ioos:station:WAVCIS:CSI15:1,2012-05-08T12:00:00Z,28.8332,-90.8320,10.0,5.167,353.0,,'11111222,11111222,99999999' 
WAVCIS,ioos:station:WAVCIS:CSI15:1,2012-05-08T13:00:00Z,28.8332,-90.8320,10.0,5.416,0.0,,'11111222,11111222,99999999' 
WAVCIS,ioos:station:WAVCIS:CSI15:1,2012-05-08T14:00:00Z,28.8332,-90.8320,10.0,5.117,8.0,,'11111222,11111222,99999999' 
WAVCIS,ioos:station:WAVCIS:CSI15:1,2012-05-08T15:00:00Z,28.8332,-90.8320,10.0,4.967,8.0,,'11111222,11111222,99999999' 
WAVCIS,ioos:station:WAVCIS:CSI15:1,2012-05-08T16:00:00Z,28.8332,-90.8320,10.0,3.685,13.0,,'11111222,11111222,99999999' 
WAVCIS,ioos:station:WAVCIS:CSI15:1,2012-05-08T17:00:00Z,28.8332,-90.8320,10.0,3.34,16.0,,'11111222,11111222,99999999' 
WAVCIS,ioos:station:WAVCIS:CSI15:1,2012-05-08T18:00:00Z,28.8332,-90.8320,10.0,3.393,36.0,,'11111222,11111222,99999999' 
WAVCIS,ioos:station:WAVCIS:CSI15:1,2012-05-08T19:00:00Z,28.8332,-90.8320,10.0,1.468,62.0,,'11111222,11111222,99999999' 
WAVCIS,ioos:station:WAVCIS:CSI15:1,2012-05-08T20:00:00Z,28.8332,-90.8320,10.0,2.435,68.0,,'11111222,11111222,99999999' 
WAVCIS,ioos:station:WAVCIS:CSI15:1,2012-05-08T21:00:00Z,28.8332,-90.8320,10.0,3.396,61.0,,'11111222,11111222,99999999' 
WAVCIS,ioos:station:WAVCIS:CSI15:1,2012-05-08T22:00:00Z,28.8332,-90.8320,10.0,1.984,118.0,,'11111222,11111222,99999999' 
WAVCIS,ioos:station:WAVCIS:CSI15:1,2012-05-08T23:00:00Z,28.8332,-90.8320,10.0,1.669,167.0,,'11111222,11111222,99999999' 
WAVCIS,ioos:station:WAVCIS:CSI15:1,2012-05-09T00:00:00Z,28.8332,-90.8320,10.0,2.614,212.0,,'11111222,11111222,99999999' 
WAVCIS,ioos:station:WAVCIS:CSI15:1,2012-05-09T01:00:00Z,28.8332,-90.8320,10.0,4.028,219.0,,'11111222,11111222,99999999' 
WAVCIS,ioos:station:WAVCIS:CSI15:1,2012-05-09T02:00:00Z,28.8332,-90.8320,10.0,3.945,223.0,,'11111222,11111222,99999999' 
WAVCIS,ioos:station:WAVCIS:CSI15:1,2012-05-09T03:00:00Z,28.8332,-90.8320,10.0,4.027,234.0,,'11111222,11111222,99999999' 
WAVCIS,ioos:station:WAVCIS:CSI15:1,2012-05-09T04:00:00Z,28.8332,-90.8320,10.0,3.194,258.0,,'11111222,11111222,99999999' 
WAVCIS,ioos:station:WAVCIS:CSI15:1,2012-05-09T05:00:00Z,28.8332,-90.8320,10.0,4.098,272.0,,'11111222,11111222,99999999' 